Time,TemperatureF,DewpointF,PressureIn,WindDirection,WindDirectionDegrees,WindSpeedMPH,WindSpeedGustMPH,Humidity,HourlyPrecipIn,Conditions,Clouds,dailyrainin,SoftwareType,DateUTC
2013-07-27 00:14:00,60.3,59.7,29.90,SSE,157,0.0,-999.0,98,-99.99,,,0.00,Acu-Link.com,2013-07-27 04:14:00,
2013-07-27 00:29:00,60.1,59.5,29.90,ENE,67,0.0,-999.0,98,-99.99,,,0.00,Acu-Link.com,2013-07-27 04:29:00,
2013-07-27 00:44:00,59.7,59.1,29.90,WNW,292,0.0,-999.0,98,-99.99,,,0.00,Acu-Link.com,2013-07-27 04:44:00,
2013-07-27 01:02:00,59.2,58.6,29.90,NNE,22,0.0,-999.0,98,-99.99,,,0.00,Acu-Link.com,2013-07-27 05:02:00,
2013-07-27 01:19:00,59.2,58.6,29.90,West,270,0.0,-999.0,98,-99.99,,,0.00,Acu-Link.com,2013-07-27 05:19:00,
2013-07-27 01:34:00,58.6,58.0,29.90,South,180,0.0,-999.0,98,-99.99,,,0.00,Acu-Link.com,2013-07-27 05:34:00,
2013-07-27 01:49:00,58.3,57.7,29.90,East,90,0.0,-999.0,98,-99.99,,,0.00,Acu-Link.com,2013-07-27 05:49:00,
2013-07-27 02:04:00,58.1,57.5,29.89,South,180,0.0,-999.0,98,-99.99,,,0.00,Acu-Link.com,2013-07-27 06:04:00,
2013-07-27 02:37:00,57.4,56.8,29.89,West,270,0.0,-999.0,98,-99.99,,,0.00,Acu-Link.com,2013-07-27 06:37:00,
2013-07-27 02:52:00,57.2,56.6,29.89,SSW,202,0.0,-999.0,98,-99.99,,,0.00,Acu-Link.com,2013-07-27 06:52:00,
2013-07-27 03:07:00,56.8,56.2,29.89,NNE,22,0.0,-999.0,98,-99.99,,,0.00,Acu-Link.com,2013-07-27 07:07:00,
2013-07-27 03:22:00,56.5,55.9,29.89,NE,45,0.0,-999.0,98,-99.99,,,0.00,Acu-Link.com,2013-07-27 07:22:00,
2013-07-27 03:40:00,56.7,56.1,29.88,SSE,157,0.0,-999.0,98,-99.99,,,0.00,Acu-Link.com,2013-07-27 07:40:00,
2013-07-27 03:55:00,55.9,55.3,29.88,South,180,0.0,-999.0,98,-99.99,,,0.00,Acu-Link.com,2013-07-27 07:55:00,
2013-07-27 04:12:00,55.6,55.0,29.89,SW,225,0.0,-999.0,98,-99.99,,,0.00,Acu-Link.com,2013-07-27 08:12:00,
2013-07-27 04:27:00,56.1,55.5,29.88,South,180,0.0,-999.0,98,-99.99,,,0.00,Acu-Link.com,2013-07-27 08:27:00,
2013-07-27 04:43:00,55.2,54.6,29.89,South,180,0.0,-999.0,98,-99.99,,,0.00,Acu-Link.com,2013-07-27 08:43:00,
2013-07-27 05:00:00,55.2,54.6,29.89,South,180,0.0,-999.0,98,-99.99,,,0.00,Acu-Link.com,2013-07-27 09:00:00,
2013-07-27 05:16:00,55.4,54.8,29.89,South,180,0.0,-999.0,98,-99.99,,,0.00,Acu-Link.com,2013-07-27 09:16:00,
2013-07-27 05:31:00,55.0,54.4,29.89,South,180,0.0,-999.0,98,-99.99,,,0.00,Acu-Link.com,2013-07-27 09:31:00,
2013-07-27 05:46:00,54.9,54.3,29.89,South,180,0.0,-999.0,98,-99.99,,,0.00,Acu-Link.com,2013-07-27 09:46:00,
2013-07-27 06:01:00,55.0,54.4,29.88,South,180,0.0,-999.0,98,-99.99,,,0.00,Acu-Link.com,2013-07-27 10:01:00,
2013-07-27 06:16:00,55.9,55.3,29.88,NNE,22,0.0,-999.0,98,-99.99,,,0.00,Acu-Link.com,2013-07-27 10:16:00,
2013-07-27 06:31:00,57.2,56.6,29.88,ENE,67,0.0,-999.0,98,-99.99,,,0.00,Acu-Link.com,2013-07-27 10:31:00,
2013-07-27 22:29:00,68.7,68.1,29.79,NW,315,0.0,-999.0,98,-99.99,,,0.00,Acu-Link.com,2013-07-28 02:29:00,